Showing default

YAM-6, 59126

Orbit data source: Space-Track

YAM-6, 59126 is a payload satellite owned by Loft Orbital (US) in SSO that was launched on Mon, 04 Mar 2024 UTC via an FALCON 9 launch vehicle from the Air Force Western Test Range (AFWTR). Payload-class satellites include a variety of spacecraft equipped with specific instruments for various scientific and technological missions. These include communications satellites like Starlink; space stations such as the ISS; scientific satellites like the Hubble; Earth observation satellites from companies like Planet Labs, Umbra, and HawkEye 360; GPS; miniature CubeSats for education and research; and military/defense satellites.

Loading next visibility...
Identifier
59126, 2024-043AE
Orbit
SSO
Country
Flag of USUS
Related business
Manufacturer
LeoStella
Mission
Operational Commercial Technology
Bus & Motor
YAM, Unknown motor
Mass
87 kg wet, 87 kg dry
Launch date (UTC)
2024-03-04 (2 years ago)
Launch vehicle
FALCON 9
Launch site
Air Force Western Test Range (AFWTR)
Object type
Payload
Rocket body
Debris
Shape & HBR
Box, 1.0 m
Radar Cross Section
1.500 m², Medium (>0.1 m² and < 1m²)

Expand to show TLE details & history
Last TLE update: 11 hours ago

TLE from 11 hours ago
0 YAM-6
1 59126U 24043AE  26034.16928119  .00011439  00000-0  34535-3 0  9999
2 59126  97.5348 171.9897 0008479 354.2953   5.8192 15.34399650106740
Epoch: 2026-02-03T04:03Z
TLE epoch observation values (Epoch: 2026-02-03T04:03:45.894Z)
Latitude
Longitude
-22.3056°
Altitude
460.039 km
Speed
7.64 km/s
True Right ascension
11h 27m 57s
True Declination
0° 00' 00"
Sunlit
Object was in full shadow at epoch
Visualization orbit readout
Latitude
Unknown
Longitude
Unknown
Altitude
Unknown
Speed
Unknown
Apparent Right ascension
Unknown
Apparent Declination
Unknown
Sunlit
N/A
Visualization observer readout
Local Sidereal Time
17:09:44
Azimuth
Unknown
Elevation
Unknown
Doppler factor
Unknown
Orbital elements
Apogee altitude
465.454 km
Perigee altitude
453.859 km
Semi-major axis
6,837.794 km
Eccentricity
0.00085
Inclination
97.5348°
RAAN
171.9897°
Arg. of periapsis
354.2953°
True anomaly
5.82906°
Mean anomaly
5.8192°
Eccentric anomaly
5.82413°
Mean motion
3.83857 °/min
Orbital period
93.78 mins
BSTAR
0.00034535
Loading maneuver chart data...
Computing Atmospheric mass density...
Loading historical data...
Loading historical data...
Loading historical data...
Loading historical data...
Loading historical data...
Loading historical data...
Loading historical data...

Documentation

Showing up to 5 results
|